Location: Chiroubles
(46.1812°N, 4.6660°E)
Time: 18:49:44
(UTC+00:00)

Meteor 1-18 Rocket - Pass Details

Date: 15 August 2020
Orbit: 836 x 909 km, 81.2° (Epoch: 24 September)

Event Time Altitude Azimuth Distance (km) Brightness Sun altitude
Rises 20:22:06 0° 350° (N) 3,412 8.2 -14.7°
Reaches altitude 10° 20:24:33 10° 352° (N) 2,467 7.3 -15.0°
Maximum altitude 20:30:08 74° 78° (ENE) 873 4.1 -15.8°
Enters shadow 20:33:53 21° 161° (SSE) 1,785 5.4 -16.2°
